Regional Weather Roundup
Issued by NWS Lake Charles, LA

Home | Current Version | Previous Version | Text Only | Print | Product List | Glossary On
Versions: 1 2 3 4 5 6 7 8 9 10 11 12 13 14 15 16 17 18 19 20 21 22 23 24 25 26
000
ASUS44 KLCH 262210
RWRLCH
REGIONAL WEATHER ROUNDUP
NATIONAL WEATHER SERVICE LAKE CHARLES LA
500 PM CDT TUE SEP 26 2017

Note: "fair" indicates few or no clouds below 12,000 feet with no
significant weather and/or obstructions to visibility.


ACROSS SOUTHEAST TEXAS

CITY           SKY/WX    TMP DP  RH WIND       PRES   REMARKS
BEAUMONT       MOSUNNY   86  69  56 SE8       29.84S
BEAUMONT CITY  FAIR      89  69  51 SE8       29.85S
ORANGE         MOCLDY    88  73  61 MISG      29.86S
JASPER         MOSUNNY   90  68  48 E6        29.88F
$$

ACROSS CENTRAL LOUISIANA

CITY           SKY/WX    TMP DP  RH WIND       PRES   REMARKS
LEESVILLE      MOSUNNY   88  66  48 NE6       29.86S
FULLERTON      FAIR      90  68  48 VRB3      29.84S
ALEXANDRIA INT SUNNY     90  66  45 N8        29.85S
ESLER FIELD    MOSUNNY   84  73  69 CALM      29.87S
DERIDDER       FAIR      85  68  56 CALM      29.89R
OAKDALE        CLEAR     89  68  50 CALM      29.86S
OPELOUSAS      FAIR      90  69  50 N5        29.86S
$$

ACROSS SOUTHWEST AND SOUTH CENTRAL LOUISIANA

CITY           SKY/WX    TMP DP  RH WIND       PRES   REMARKS
SULPHUR        PTCLDY    89  68  49 NE7       29.85F
LAKE CHARLES   MOSUNNY   91  67  44 NE10      29.84S
CHENNAULT INT  MOSUNNY   75  66  73 E6        29.85S
CAMERON PHI    NOT AVBL
DEQUINCY       FAIR      88  67  49 CALM      29.86S
JENNINGS       FAIR      89  66  47 N6        29.85S
LAFAYETTE      MOSUNNY   90  69  50 VRB6      29.85S
NEW IBERIA     MOSUNNY   92  67  43 VRB3      29.85S
ABBEVILLE      FAIR      88  70  55 CALM      29.85S
PATTERSON      NOT AVBL
SALT POINT       N/A     87  72  60 VRB3      29.84F
$$

SELECTED SITES ACROSS THE REGION

CITY           SKY/WX    TMP DP  RH WIND       PRES   REMARKS
HOUSTON BUSH   PTSUNNY   88  69  53 E9        29.83F
HOUSTON HOBBY  PTSUNNY   90  68  48 E6        29.82F
GALVESTON      MOSUNNY   87  75  67 SE14      29.84F
COLLEGE STAT   PTSUNNY   87  70  56 E8        29.84F
CONROE         MOSUNNY   89  68  49 E8        29.84F
HUNTSVILLE     MOSUNNY   87  66  49 E3        29.85F
LUFKIN         MOSUNNY   86  67  52 E6        29.86F
SHREVEPORT     MOSUNNY   89  66  46 SE8       29.87F
MONROE         MOSUNNY   86  69  56 NE7       29.89S
NATCHEZ MS     CLOUDY    86  69  56 E6        29.88F
BATON ROUGE    MOSUNNY   89  67  47 VRB5      29.85S
N.O. INTL ARPT PTSUNNY   88  70  55 VRB3      29.85F
SLIDELL        MOSUNNY   87  72  60 SE5       29.85F
$$

MARINE REPORTS

STATION/POSITION TIME  SKY/WX   TEMP    WIND        PRES    VSBY
                                AIR SEA DIR/SP/G
                 (UTC)          (F)     (DEG/KT/KT) (MB)    (MI)
BUOY 30 S HIGH I 2050            82 84  110/ 10/ 10 1010.8
WVE H/P(F/S)=  1/ 5

SEA RIM ST PARK  2100            84     140/  8/ 11 1011.4F
PORT ARTHUR      2136            84 84  190/  3/  5 1011.0F
SABINE PASS N    2136            84 86  140/ 10/ 12 1012.3F
TEXAS POINT      NOT AVBL
CALCASIEU PASS   2136            83 85  200/  6/  7 1009.8F
LK CHARLES BEACH 2136            89 82              1010.2F
MARSH ISLAND     2100            84                   N/A
FRESH WATER LOCK 2136            83 86  170/  8/ 10 1010.9S
AMERADA PASS     2136            85 85  190/  2/  5 1011.0F
$$




USA.gov is the U.S. government's official web portal to all federal, state and local government web resources and services.